Location: Cannifist
(18.2333°N, 63.0167°W)
Time: 02:15:42
(UTC+00:00)

Star 37E S/N 40099 - Pass Details

Date: 27 February 2020
Orbit: 568 x 48852 km, 27.8° (Epoch: 05 April)

Event Time Altitude Azimuth Distance (km) Brightness Sun altitude
Rises 22:17:40 0° 291° (WNW) 4,474 9.7 -0.9°
Reaches altitude 10° 22:21:24 10° 289° (WNW) 2,504 8.4 -1.8°
Maximum altitude 22:25:42 72° 205° (SSW) 602 4.2 -2.8°
Drops below altitude 10° 22:29:09 10° 119° (ESE) 2,016 6.2 -3.6°
Enters shadow 22:32:22 -2° 117° (ESE) 3,754 7.6 -4.4°
